Wind_Speed
21 21 20 20 22 21 19 19 19 18 16 15 15 14 13 12 11 10 9 9 10 9 9 8 8 8 9 8 7 7 8 8 8 8 8 9 9 10 10 10 10 10 9 9 10 10 11 12 12
21 21 21 23 23 22 21 20 19 17 16 16 14 13 12 11 11 10 10 10 11 10 9 8 8 9 9 9 9 8 9 8 8 8 8 9 9 10 10 10 10 10 9 9 10 11 12 12 12
21 21 21 23 22 22 22 21 20 19 17 16 15 13 12 11 11 10 10 10 11 10 9 8 8 9 9 9 9 9 8 8 8 8 8 9 9 10 10 10 10 10 10 10 10 12 12 12 12
20 21 22 23 23 23 23 21 21 20 18 17 16 14 13 12 11 11 11 11 11 11 10 9 9 9 9 9 8 8 8 9 9 9 9 9 10 10 9 10 10 10 10 10 10 11 12 12 12
18 19 21 22 23 23 23 22 21 19 18 18 16 15 13 13 13 12 12 12 12 11 10 10 9 9 9 9 9 9 8 9 9 9 9 10 10 9 9 9 10 10 9 11 12 12 12 12 11
17 17 20 21 22 23 23 22 21 18 18 18 17 16 15 14 14 14 13 12 13 12 10 10 9 9 9 9 9 9 8 9 9 9 9 9 10 9 9 9 9 10 10 12 12 12 11 11 10
16 16 18 19 20 21 22 21 20 18 18 18 18 17 17 16 15 15 15 14 14 13 11 11 10 9 9 9 8 8 8 8 8 9 9 8 8 8 9 8 9 9 10 10 12 12 11 11 10
15 16 17 19 19 21 21 20 19 18 18 18 18 18 17 17 16 15 15 14 14 14 14 13 11 10 10 9 9 8 8 8 8 8 9 8 8 8 8 8 8 9 10 10 11 11 11 10 9
14 14 16 18 19 20 20 19 19 19 19 19 19 18 17 17 17 16 15 14 14 14 14 13 12 11 10 9 9 8 8 8 8 8 8 8 8 9 9 9 9 9 9 9 9 9 9 9 9
12 13 15 17 18 19 19 18 19 20 20 20 19 18 17 17 17 17 15 15 13 13 13 13 12 11 10 10 9 8 8 8 7 7 6 7 8 8 8 9 9 9 9 8 8 8 8 8 7
10 12 14 15 17 18 18 18 19 20 20 19 19 18 18 17 17 17 16 16 15 14 13 12 12 11 11 10 9 9 9 8 8 7 7 7 8 8 8 8 8 8 7 7 6 7 6 6 6
8 11 14 16 17 18 19 19 20 20 19 18 18 18 17 17 17 17 17 16 16 15 14 13 13 11 10 10 10 9 9 8 8 8 8 8 7 7 7 7 7 6 6 6 5 5 5 6 5
8 10 12 14 16 18 19 19 19 19 19 18 17 17 17 17 17 17 17 16 15 15 14 14 13 13 12 11 10 10 10 9 9 9 9 8 7 7 7 7 6 5 5 5 5 5 5 4 4
7 9 10 12 14 17 17 17 18 18 18 17 17 16 17 17 17 17 17 16 15 14 14 14 13 13 13 12 11 10 10 9 9 8 8 8 7 7 7 7 6 5 5 5 4 3 4 3 3
6 7 9 11 12 14 14 14 16 17 17 17 16 16 17 17 17 16 16 15 15 14 13 13 13 13 12 12 12 11 10 9 9 8 8 8 8 7 7 7 6 5 4 4 3 3 3 3 2
3 4 6 7 9 12 13 12 13 15 16 16 15 16 16 16 16 16 15 15 14 14 14 13 13 13 12 12 12 12 10 9 9 8 8 8 8 8 7 6 6 4 4 3 3 2 2 2 2
4 2 2 3 6 10 11 11 12 13 14 15 15 15 15 15 15 15 15 15 14 13 13 13 12 12 12 12 12 12 11 10 10 9 8 8 8 8 7 5 5 4 3 2 2 2 1 1 1
3 2 3 1 3 7 9 9 9 11 12 13 14 14 15 14 14 14 14 14 14 13 13 12 12 12 12 11 11 11 11 10 9 9 9 8 8 7 7 5 4 3 3 2 2 1 1 1 0
5 3 1 0 2 5 7 7 8 9 11 11 12 13 14 13 13 13 13 13 12 12 12 11 11 11 11 10 10 10 10 9 9 8 8 8 7 7 6 5 4 4 3 2 2 2 1 1 1
6 6 4 2 3 5 6 6 7 7 9 9 10 10 12 12 12 12 12 11 11 11 11 11 11 11 10 10 9 9 9 9 8 8 8 7 6 5 4 5 4 4 3 3 2 2 2 2 2
9 7 7 6 6 7 7 7 7 5 6 7 8 9 9 10 10 10 10 10 10 10 10 10 10 10 9 9 9 8 8 8 8 7 7 6 6 5 4 4 4 4 3 3 3 3 3 3 3
12 10 10 10 9 9 10 8 4 5 5 6 6 7 7 8 8 8 8 9 9 9 10 10 9 9 9 9 9 8 8 7 7 6 5 5 5 5 4 4 3 3 3 3 3 4 4 4 4
15 13 13 13 13 13 13 11 7 6 5 6 5 4 5 6 6 6 7 8 8 9 9 9 9 9 9 8 7 7 7 7 7 6 5 4 4 4 4 4 3 3 3 4 4 5 5 4 4
18 17 17 16 16 16 14 14 11 9 7 5 3 3 3 4 5 5 5 6 6 7 8 8 8 8 8 8 7 6 6 6 7 7 6 4 4 4 4 4 3 3 4 4 5 6 6 6 6
21 20 19 18 18 16 14 14 12 8 7 5 4 3 2 3 3 4 4 5 5 6 6 7 7 7 7 7 7 7 6 6 6 7 7 6 4 4 4 4 4 4 4 5 5 6 6 6 6
23 22 21 19 18 16 16 15 12 9 8 7 5 3 2 2 2 2 3 3 4 5 5 6 6 7 7 6 6 6 6 5 5 5 6 6 5 5 4 4 4 4 4 5 5 6 7 7 7
24 25 23 22 20 19 17 14 12 10 9 8 6 3 2 2 2 1 1 2 3 4 4 5 5 6 6 6 5 5 5 5 5 5 5 5 5 5 5 5 5 5 6 6 6 6 7 7 7
26 25 25 25 23 21 19 16 13 11 9 8 7 5 5 4 3 2 1 2 3 3 4 4 5 5 5 5 5 4 4 5 5 6 5 5 5 5 5 6 6 7 7 7 7 7 8 8 8
27 27 28 26 25 24 21 18 14 13 12 11 9 8 7 6 4 3 2 2 3 3 4 4 4 4 4 4 5 5 4 5 5 6 6 6 5 6 6 7 7 8 8 8 8 8 9 9 9
28 27 28 28 27 25 24 21 16 15 13 12 11 8 7 7 6 5 4 4 4 4 4 4 4 5 4 4 5 5 5 5 6 6 7 7 6 7 7 7 8 8 9 9 10 9 9 10 10
Wind_Direction
57 50 47 45 41 42 44 46 48 48 44 43 40 40 41 43 44 48 50 56 62 66 76 80 77 77 79 87 101 94 102 111 116 121 125 132 135 133 134 134 136 133 132 130 129 129 131 127 125
55 48 46 43 40 40 44 47 48 49 47 47 43 42 42 43 46 48 52 57 65 71 78 83 78 79 82 87 96 96 101 110 115 121 122 129 132 132 132 135 136 135 133 131 133 131 131 128 126
54 47 42 40 39 41 44 46 47 47 48 49 49 48 46 47 50 49 52 59 66 69 77 84 80 83 85 87 93 98 96 109 115 118 119 126 130 132 132 133 135 136 136 136 136 133 132 128 127
51 44 39 37 38 42 44 45 45 45 46 48 50 49 49 49 53 54 55 60 63 68 74 84 86 86 86 90 93 97 99 110 119 123 122 124 127 129 129 132 134 135 136 135 137 133 133 130 129
48 42 35 36 36 39 41 44 44 42 43 45 49 51 52 54 57 59 59 60 65 69 76 83 87 86 87 88 90 96 104 115 123 128 126 127 127 127 129 128 129 131 135 134 131 129 129 131 130
47 41 37 37 37 39 40 42 43 40 42 46 50 51 54 57 58 61 62 61 65 72 81 87 88 87 87 89 88 92 101 112 122 127 126 126 124 129 128 128 132 133 133 134 132 128 128 130 130
45 39 35 38 39 39 38 42 44 42 41 46 49 51 54 58 59 60 61 64 70 74 82 88 86 85 87 90 90 96 103 105 113 122 128 131 127 127 125 132 137 138 134 132 132 132 132 133 131
46 40 38 40 38 38 39 42 45 47 44 47 49 49 52 58 60 60 62 64 72 74 79 83 84 85 86 86 87 91 100 104 106 115 124 133 138 137 131 134 137 138 136 136 135 132 134 137 136
49 41 38 38 37 39 40 42 45 49 46 47 49 50 53 58 62 64 63 65 72 75 78 82 84 85 84 87 88 91 99 104 107 115 121 125 137 142 139 136 137 140 143 139 139 135 137 140 143
47 40 39 40 41 42 43 43 45 47 45 46 48 49 53 58 62 66 67 69 71 73 77 80 84 86 88 87 91 93 100 103 109 118 120 126 134 136 138 136 133 135 137 140 140 142 142 143 147
52 49 47 47 46 46 47 46 46 47 44 45 47 49 51 54 58 63 67 71 74 76 79 80 82 81 81 84 87 89 95 99 101 108 115 126 132 134 134 131 127 125 127 135 140 143 144 147 150
62 58 54 51 49 48 48 48 46 45 45 46 48 50 54 55 57 60 64 69 73 75 77 80 82 80 79 80 80 83 87 89 96 103 116 125 127 136 141 136 134 134 134 138 144 146 147 150 154
75 64 58 51 47 43 44 46 45 44 45 47 49 52 56 56 56 57 62 66 71 73 74 75 78 79 78 78 80 82 87 89 90 95 108 115 122 132 142 147 147 145 137 138 145 144 141 142 155
88 77 66 56 49 45 43 42 43 44 45 45 46 51 54 55 56 57 57 61 64 67 68 71 73 73 74 75 76 77 82 85 87 89 97 107 116 125 134 142 142 138 135 138 139 139 160 159 161
99 93 74 61 50 44 40 40 40 43 44 44 45 49 53 54 55 56 57 58 60 64 67 70 70 70 69 70 69 70 77 78 81 86 88 99 108 116 121 131 132 126 125 127 134 139 158 163 194
126 96 78 60 52 40 33 36 38 39 42 44 45 48 51 51 53 55 56 58 60 64 66 70 70 68 68 67 68 69 72 73 75 83 88 97 103 112 118 121 120 118 122 130 134 135 140 171 221
151 135 110 61 41 30 24 29 36 35 36 41 45 45 48 50 51 52 54 55 58 63 65 67 67 66 67 66 69 69 69 71 73 78 87 93 98 104 110 111 111 114 114 128 144 143 147 177 242
179 170 132 111 24 18 17 15 28 35 30 36 41 42 46 48 48 50 52 53 56 59 62 66 66 65 66 66 69 69 69 69 71 75 84 89 90 94 97 98 104 114 117 118 129 159 173 196 255
201 212 203 256 337 351 3 5 12 23 20 25 32 39 43 46 46 47 49 53 56 58 60 63 65 65 67 68 68 68 68 67 69 74 82 87 90 94 90 85 88 95 102 104 107 104 88 29 336
202 226 250 262 309 321 339 350 354 8 15 20 24 32 39 43 45 44 45 51 56 59 60 61 63 63 65 65 66 68 67 65 67 71 77 82 83 81 79 77 74 73 72 66 56 44 21 352 330
201 219 241 253 266 287 303 319 339 358 5 15 23 30 38 41 44 45 44 47 54 58 59 60 61 60 61 62 62 64 62 61 61 65 70 74 73 71 75 72 64 58 59 49 30 11 352 338 321
214 221 238 249 255 269 278 293 308 335 353 5 12 24 37 37 39 44 43 44 46 53 55 56 56 55 57 58 57 59 60 59 58 59 61 61 62 62 57 53 53 48 40 24 2 350 338 326 317
219 228 239 249 254 258 265 275 291 309 328 343 357 26 41 38 32 42 43 45 46 46 48 50 51 51 51 53 52 55 58 54 52 52 52 52 52 47 44 38 38 36 23 6 353 347 341 334 324
221 227 239 247 252 257 258 267 279 291 301 320 352 29 45 29 32 44 47 47 46 42 43 43 43 45 46 49 49 52 51 49 48 48 47 52 47 37 32 24 20 12 360 350 346 344 340 338 330
220 224 231 237 242 252 254 263 270 276 286 309 335 341 8 23 28 33 40 44 44 39 35 35 35 37 40 46 46 46 43 43 47 49 48 44 39 31 25 19 9 354 347 341 340 337 333 332 330
222 223 228 237 245 254 257 263 270 269 272 285 302 305 324 4 32 34 32 23 32 35 29 25 25 29 33 37 37 40 38 39 44 46 43 36 31 28 23 14 3 347 339 335 336 336 332 330 328
223 224 230 238 245 255 260 262 262 265 261 272 271 272 298 303 332 350 9 8 18 21 18 15 14 17 20 21 22 27 28 27 27 26 25 21 15 11 9 6 4 0 353 348 348 344 339 334 330
223 226 229 234 240 250 254 255 261 256 264 271 265 262 270 300 289 324 0 359 6 6 4 5 5 6 10 11 9 12 13 16 14 11 8 1 354 351 351 353 354 352 348 343 341 340 336 331 327
225 226 227 233 239 245 250 254 260 260 262 265 266 262 263 269 275 276 278 303 323 331 337 344 350 353 353 354 354 351 355 1 4 1 357 353 345 337 340 343 344 344 342 339 337 335 333 329 326
227 228 229 232 238 243 248 251 254 261 261 263 259 254 253 255 253 255 259 280 294 301 307 315 325 332 334 336 340 343 344 345 345 345 347 345 340 335 331 335 335 338 339 338 335 332 330 327 325
Height
5903 5901 5900 5899 5897 5895 5893 5892 5890 5889 5888 5885 5884 5883 5882 5881 5880 5881 5877 5874 5873 5873 5872 5872 5871 5871 5871 5871 5871 5871 5871 5871 5872 5873 5873 5874 5875 5875 5876 5877 5878 5878 5879 5879 5880 5881 5882 5883 5884
5905 5903 5903 5901 5898 5897 5896 5894 5893 5892 5889 5887 5886 5885 5883 5882 5880 5879 5877 5875 5874 5874 5873 5873 5873 5873 5873 5873 5872 5872 5872 5873 5873 5874 5874 5875 5876 5877 5877 5878 5879 5880 5880 5881 5881 5883 5883 5884 5885
5907 5906 5905 5903 5900 5899 5898 5896 5894 5893 5891 5890 5889 5887 5885 5883 5881 5879 5878 5877 5876 5875 5874 5874 5874 5874 5874 5874 5874 5874 5874 5874 5875 5875 5875 5876 5877 5878 5879 5879 5880 5881 5881 5882 5883 5884 5884 5885 5886
5910 5909 5907 5905 5902 5901 5900 5898 5896 5894 5893 5891 5890 5889 5887 5885 5883 5881 5879 5878 5877 5876 5876 5875 5875 5875 5875 5875 5875 5876 5876 5875 5876 5876 5877 5877 5878 5879 5880 5881 5881 5882 5883 5883 5884 5885 5886 5887 5887
5912 5910 5909 5907 5905 5903 5902 5900 5898 5897 5895 5893 5892 5890 5888 5886 5884 5882 5881 5880 5879 5878 5877 5876 5877 5877 5877 5877 5877 5877 5877 5877 5877 5878 5878 5878 5879 5880 5881 5882 5883 5884 5884 5885 5885 5886 5887 5888 5889
5914 5912 5911 5909 5908 5906 5904 5902 5901 5899 5897 5895 5893 5892 5890 5888 5886 5884 5883 5882 5880 5879 5878 5878 5879 5879 5879 5879 5878 5878 5878 5878 5879 5879 5880 5880 5881 5882 5883 5883 5884 5885 5885 5886 5886 5888 5888 5889 5890
5917 5915 5913 5912 5911 5909 5907 5906 5904 5902 5899 5897 5895 5894 5892 5890 5888 5886 5885 5883 5882 5881 5880 5880 5880 5880 5880 5880 5880 5880 5880 5880 5880 5881 5881 5882 5883 5883 5884 5885 5885 5886 5886 5887 5888 5889 5890 5891 5891
5918 5918 5916 5914 5913 5911 5910 5908 5907 5905 5902 5900 5898 5896 5894 5892 5890 5888 5887 5885 5884 5883 5882 5882 5882 5882 5882 5882 5881 5881 5881 5882 5882 5882 5882 5883 5884 5884 5885 5886 5886 5887 5888 5888 5889 5890 5891 5892 5892
5920 5921 5919 5917 5916 5914 5912 5911 5909 5907 5904 5902 5900 5899 5897 5895 5893 5891 5889 5888 5887 5886 5885 5885 5885 5884 5884 5884 5883 5883 5883 5883 5883 5883 5884 5884 5884 5885 5886 5886 5887 5888 5889 5890 5890 5891 5892 5893 5893
5923 5923 5922 5920 5919 5917 5915 5913 5911 5908 5907 5904 5903 5901 5899 5897 5896 5894 5892 5891 5889 5889 5888 5888 5887 5886 5886 5886 5885 5885 5884 5884 5884 5884 5885 5885 5886 5886 5887 5888 5889 5889 5890 5891 5892 5892 5893 5893 5894
5925 5925 5924 5923 5921 5920 5918 5916 5913 5911 5909 5907 5905 5904 5901 5899 5898 5897 5895 5894 5892 5891 5891 5890 5890 5889 5888 5887 5887 5886 5886 5886 5886 5886 5886 5886 5887 5888 5888 5889 5890 5891 5891 5892 5893 5893 5894 5894 5894
5926 5926 5925 5924 5923 5922 5921 5918 5916 5914 5913 5910 5908 5906 5904 5902 5900 5899 5897 5896 5895 5894 5893 5893 5892 5891 5890 5889 5889 5888 5888 5888 5887 5887 5887 5887 5888 5889 5889 5890 5891 5892 5892 5893 5893 5894 5894 5894 5895
5927 5927 5927 5926 5925 5924 5923 5921 5919 5917 5915 5913 5911 5909 5907 5905 5903 5901 5900 5898 5897 5896 5896 5895 5894 5893 5893 5892 5891 5890 5890 5889 5889 5889 5889 5889 5889 5890 5890 5891 5892 5893 5893 5893 5893 5894 5894 5895 5895
5928 5928 5928 5927 5927 5926 5925 5924 5922 5920 5918 5916 5914 5911 5909 5907 5905 5903 5902 5900 5899 5898 5897 5896 5896 5895 5894 5894 5893 5892 5892 5891 5891 5890 5890 5890 5891 5891 5891 5892 5893 5893 5894 5894 5894 5894 5895 5895 5895
5929 5930 5929 5929 5929 5928 5928 5927 5925 5922 5920 5918 5916 5914 5912 5909 5908 5906 5904 5902 5901 5900 5899 5898 5898 5897 5896 5895 5895 5894 5893 5893 5892 5892 5892 5892 5892 5892 5893 5893 5894 5894 5894 5895 5895 5895 5895 5896 5895
5929 5930 5930 5930 5929 5929 5931 5928 5926 5925 5923 5920 5918 5916 5914 5912 5910 5908 5907 5905 5904 5903 5902 5900 5900 5899 5898 5897 5896 5896 5895 5894 5894 5894 5894 5893 5893 5893 5894 5895 5895 5895 5895 5895 5895 5895 5895 5895 5895
5928 5929 5929 5930 5929 5929 5930 5929 5928 5926 5925 5923 5921 5918 5916 5914 5912 5910 5909 5907 5906 5905 5904 5903 5902 5901 5900 5899 5898 5897 5896 5896 5896 5895 5895 5895 5895 5895 5895 5895 5896 5896 5896 5896 5896 5896 5896 5896 5895
5929 5929 5929 5929 5929 5929 5930 5930 5928 5928 5926 5924 5922 5920 5918 5917 5915 5913 5911 5909 5908 5907 5906 5904 5903 5903 5902 5901 5900 5899 5898 5898 5898 5897 5897 5896 5896 5896 5896 5896 5896 5897 5897 5896 5896 5896 5895 5895 5895
5929 5929 5929 5930 5929 5929 5930 5930 5929 5928 5927 5925 5923 5922 5920 5918 5917 5915 5913 5911 5910 5909 5908 5907 5906 5905 5904 5903 5902 5901 5900 5900 5899 5898 5898 5898 5898 5898 5898 5898 5897 5897 5897 5897 5896 5896 5895 5895 5894
5927 5928 5928 5929 5929 5929 5930 5930 5929 5928 5927 5926 5924 5923 5921 5920 5918 5917 5915 5914 5912 5911 5910 5908 5907 5906 5905 5904 5903 5903 5902 5901 5900 5900 5899 5899 5899 5898 5898 5898 5898 5897 5897 5896 5896 5895 5895 5894 5894
5925 5927 5927 5927 5928 5928 5929 5929 5929 5928 5927 5926 5925 5923 5922 5921 5920 5918 5917 5916 5914 5913 5911 5910 5909 5908 5907 5905 5905 5904 5903 5902 5902 5901 5901 5900 5900 5899 5899 5899 5898 5898 5897 5897 5896 5895 5895 5894 5893
5923 5925 5926 5926 5927 5927 5929 5928 5928 5927 5927 5926 5925 5923 5922 5921 5920 5919 5918 5917 5915 5914 5913 5912 5911 5909 5908 5907 5906 5905 5905 5904 5903 5902 5902 5901 5900 5900 5899 5899 5898 5898 5897 5896 5896 5895 5894 5893 5892
5921 5923 5924 5924 5925 5926 5926 5927 5928 5927 5926 5925 5924 5923 5922 5922 5921 5920 5919 5918 5917 5915 5914 5913 5912 5911 5909 5908 5907 5907 5906 5905 5904 5903 5902 5901 5901 5900 5899 5899 5898 5898 5897 5896 5895 5894 5893 5892 5891
5918 5920 5921 5921 5922 5923 5924 5925 5925 5925 5925 5924 5923 5922 5922 5921 5921 5920 5919 5918 5917 5916 5915 5914 5913 5912 5910 5909 5908 5908 5907 5906 5905 5903 5902 5902 5901 5900 5900 5899 5898 5897 5896 5895 5894 5893 5892 5891 5889
5914 5916 5918 5919 5919 5920 5922 5922 5923 5923 5923 5922 5922 5922 5920 5920 5921 5920 5919 5919 5918 5917 5916 5915 5914 5912 5911 5910 5909 5908 5907 5906 5905 5904 5903 5902 5901 5900 5899 5899 5898 5897 5896 5895 5893 5892 5891 5889 5888
5910 5912 5915 5916 5916 5917 5918 5918 5921 5920 5920 5920 5920 5920 5919 5919 5919 5919 5919 5919 5918 5917 5916 5915 5914 5912 5912 5910 5909 5908 5908 5907 5905 5904 5903 5902 5901 5900 5899 5898 5897 5896 5895 5894 5892 5891 5889 5888 5886
5905 5908 5910 5912 5913 5913 5914 5916 5917 5917 5917 5918 5917 5917 5917 5917 5918 5918 5918 5918 5917 5917 5916 5915 5914 5913 5912 5910 5909 5908 5908 5907 5905 5904 5903 5902 5901 5900 5899 5898 5896 5895 5894 5892 5891 5889 5888 5886 5885
5901 5904 5905 5907 5908 5909 5910 5912 5914 5914 5915 5915 5915 5915 5915 5916 5917 5916 5916 5917 5917 5916 5915 5914 5913 5912 5911 5910 5909 5908 5907 5906 5905 5904 5903 5902 5901 5900 5898 5897 5896 5894 5893 5891 5890 5888 5886 5885 5883
5896 5898 5900 5902 5903 5905 5906 5910 5911 5911 5911 5911 5912 5912 5913 5914 5915 5915 5915 5915 5915 5915 5914 5913 5912 5911 5910 5909 5908 5908 5907 5906 5904 5903 5902 5901 5900 5899 5898 5896 5895 5893 5892 5890 5888 5886 5885 5883 5881
5889 5892 5895 5897 5899 5900 5902 5907 5906 5907 5908 5908 5909 5909 5910 5911 5912 5913 5913 5913 5914 5914 5913 5912 5911 5910 5909 5908 5908 5907 5906 5905 5904 5902 5901 5900 5899 5897 5896 5895 5893 5892 5890 5888 5887 5885 5883 5881 5879